FFT2668 KCLE-KMCO

Flight info

Callsign FFT2668
Flight time 1h 58m
Altitude 34000
Route CAVVS4 APE Q149 BURGG IRQ WHYYT GRNCH5
Aircraft A321/M-SDE3FGHIRWY/LB1

Departure

Time 2026-04-21 21:59
Airport Cleveland Hopkins International Airport (KCLE)

Arrival

Time 2026-04-21 23:57
Airport Orlando International Airport (KMCO)
Time Latitude Longitude Altitude Speed Heading
2026-04-21 21:18 41.41420 -81.83864 796 ft 0 kts 165°
2026-04-21 21:48 41.41428 -81.83867 795 ft 4 kts 168°
2026-04-21 21:48 41.41455 -81.83871 795 ft 4 kts 183°
2026-04-21 21:49 41.41481 -81.83865 795 ft 4 kts 202°
2026-04-21 21:49 41.41504 -81.83848 796 ft 4 kts 225°
2026-04-21 21:49 41.41519 -81.83820 796 ft 4 kts 252°
2026-04-21 21:49 41.41522 -81.83795 796 ft 0 kts 272°
2026-04-21 21:54 41.41523 -81.83797 796 ft 2 kts 272°
2026-04-21 21:54 41.41523 -81.83834 796 ft 4 kts 270°
2026-04-21 21:55 41.41521 -81.83865 796 ft 3 kts 259°
2026-04-21 21:55 41.41516 -81.83884 796 ft 2 kts 247°
2026-04-21 21:55 41.41485 -81.83943 795 ft 11 kts 232°
2026-04-21 21:55 41.41430 -81.84006 795 ft 10 kts 210°
2026-04-21 21:56 41.41382 -81.84062 795 ft 8 kts 228°
2026-04-21 21:56 41.41366 -81.84127 795 ft 7 kts 279°
2026-04-21 21:56 41.41383 -81.84160 795 ft 0 kts 323°
2026-04-21 21:56 41.41386 -81.84160 795 ft 0 kts 340°
2026-04-21 21:57 41.41419 -81.84156 795 ft 9 kts 14°
2026-04-21 21:57 41.41434 -81.84152 795 ft 0 kts 11°
2026-04-21 21:57 41.41440 -81.84154 795 ft 1 kts 341°
2026-04-21 21:57 41.41447 -81.84158 795 ft 3 kts 342°
2026-04-21 21:58 41.41501 -81.84229 794 ft 15 kts 275°
2026-04-21 21:58 41.41472 -81.84299 794 ft 0 kts 229°
2026-04-21 21:58 41.41412 -81.84395 794 ft 44 kts 230°
2026-04-21 21:58 41.41064 -81.84944 796 ft 109 kts 230°
2026-04-21 21:59 41.40458 -81.85904 797 ft 159 kts 230°
2026-04-21 21:59 41.39706 -81.87113 1085 ft 176 kts 231°
2026-04-21 21:59 41.38894 -81.88396 1521 ft 191 kts 225°
2026-04-21 21:59 41.37684 -81.89318 1788 ft 214 kts 198°
2026-04-21 22:00 41.36184 -81.89937 2098 ft 234 kts 198°
2026-04-21 22:00 41.34578 -81.90603 2571 ft 247 kts 198°
2026-04-21 22:00 41.32922 -81.91297 3274 ft 251 kts 198°
2026-04-21 22:00 41.31247 -81.92003 3998 ft 254 kts 198°
2026-04-21 22:01 41.29555 -81.92719 4724 ft 257 kts 198°
2026-04-21 22:01 41.27844 -81.93448 5448 ft 259 kts 198°
2026-04-21 22:01 41.26118 -81.94186 6161 ft 262 kts 198°
2026-04-21 22:01 41.24374 -81.94929 6863 ft 265 kts 198°
2026-04-21 22:02 41.22606 -81.95682 7555 ft 268 kts 198°
2026-04-21 22:02 41.20825 -81.96442 8232 ft 271 kts 198°
2026-04-21 22:02 41.19047 -81.97204 8892 ft 273 kts 199°
2026-04-21 22:02 41.17251 -81.98073 9540 ft 276 kts 201°
2026-04-21 22:03 41.15443 -81.99029 10041 ft 285 kts 202°
2026-04-21 22:03 41.13585 -82.00041 10564 ft 291 kts 202°
2026-04-21 22:03 41.11701 -82.01069 11178 ft 295 kts 202°
2026-04-21 22:03 41.09793 -82.02101 11800 ft 297 kts 202°
2026-04-21 22:04 41.07865 -82.03135 12417 ft 300 kts 202°
2026-04-21 22:04 41.05918 -82.04175 13019 ft 303 kts 202°
2026-04-21 22:04 41.03955 -82.05219 13617 ft 306 kts 202°
2026-04-21 22:04 41.01968 -82.06271 14206 ft 308 kts 202°
2026-04-21 22:05 40.99965 -82.07331 14774 ft 311 kts 202°
2026-04-21 22:05 40.97944 -82.08401 15340 ft 314 kts 202°
2026-04-21 22:05 40.95906 -82.09478 15890 ft 317 kts 202°
2026-04-21 22:05 40.93869 -82.10622 16426 ft 319 kts 204°
2026-04-21 22:06 40.91842 -82.11857 16962 ft 322 kts 205°
2026-04-21 22:06 40.89815 -82.13134 17487 ft 325 kts 206°
2026-04-21 22:06 40.87770 -82.14431 18008 ft 327 kts 206°
2026-04-21 22:06 40.85707 -82.15731 18519 ft 330 kts 206°
2026-04-21 22:07 40.83651 -82.17016 19007 ft 332 kts 205°
2026-04-21 22:07 40.81551 -82.18319 19493 ft 335 kts 205°
2026-04-21 22:07 40.79434 -82.19629 19918 ft 340 kts 205°
2026-04-21 22:07 40.77246 -82.20977 20076 ft 352 kts 205°
2026-04-21 22:08 40.74997 -82.22357 20284 ft 363 kts 205°
2026-04-21 22:08 40.72665 -82.23785 20413 ft 376 kts 205°
2026-04-21 22:08 40.70256 -82.25259 20541 ft 388 kts 205°
2026-04-21 22:08 40.67776 -82.26779 20669 ft 399 kts 205°
2026-04-21 22:09 40.65227 -82.28341 20787 ft 409 kts 205°
2026-04-21 22:09 40.62617 -82.29941 20929 ft 419 kts 205°
2026-04-21 22:09 40.59937 -82.31581 21049 ft 428 kts 205°
2026-04-21 22:09 40.57203 -82.33255 21168 ft 437 kts 205°
2026-04-21 22:10 40.54419 -82.34959 21302 ft 445 kts 205°
2026-04-21 22:10 40.51585 -82.36691 21426 ft 453 kts 205°
2026-04-21 22:10 40.48701 -82.38451 21554 ft 461 kts 205°
2026-04-21 22:10 40.45772 -82.40235 21680 ft 467 kts 205°
2026-04-21 22:11 40.42800 -82.42042 21806 ft 474 kts 205°
2026-04-21 22:11 40.39800 -82.43866 21932 ft 477 kts 205°
2026-04-21 22:11 40.36786 -82.45699 22057 ft 478 kts 205°
2026-04-21 22:11 40.33776 -82.47527 22182 ft 479 kts 205°
2026-04-21 22:12 40.30728 -82.49376 22319 ft 480 kts 205°
2026-04-21 22:12 40.27695 -82.51216 22524 ft 481 kts 205°
2026-04-21 22:12 40.24654 -82.53057 22816 ft 482 kts 205°
2026-04-21 22:12 40.21607 -82.54900 23084 ft 484 kts 205°
2026-04-21 22:13 40.18543 -82.56747 23321 ft 485 kts 205°
2026-04-21 22:13 40.15360 -82.58222 23512 ft 488 kts 192°
2026-04-21 22:13 40.11984 -82.58645 23699 ft 490 kts 178°
2026-04-21 22:13 40.08577 -82.58252 23887 ft 491 kts 174°
2026-04-21 22:14 40.05179 -82.57784 24066 ft 492 kts 174°
2026-04-21 22:14 40.01772 -82.57298 24222 ft 494 kts 174°
2026-04-21 22:14 39.98353 -82.56806 24371 ft 495 kts 174°
2026-04-21 22:14 39.94968 -82.56322 24515 ft 496 kts 174°
2026-04-21 22:15 39.91535 -82.55837 24639 ft 496 kts 174°
2026-04-21 22:15 39.88096 -82.55359 24763 ft 497 kts 174°
2026-04-21 22:15 39.84659 -82.54885 24888 ft 497 kts 174°
2026-04-21 22:15 39.81225 -82.54412 25007 ft 496 kts 174°
2026-04-21 22:16 39.77793 -82.53939 25151 ft 496 kts 174°
2026-04-21 22:16 39.74364 -82.53463 25393 ft 494 kts 174°
2026-04-21 22:16 39.70956 -82.52985 25637 ft 492 kts 174°
2026-04-21 22:16 39.67552 -82.52507 25887 ft 491 kts 174°
2026-04-21 22:17 39.64159 -82.52035 26138 ft 490 kts 174°
2026-04-21 22:17 39.60774 -82.51569 26387 ft 488 kts 174°
2026-04-21 22:17 39.57399 -82.51106 26636 ft 487 kts 174°
2026-04-21 22:17 39.54032 -82.50643 26889 ft 486 kts 174°
2026-04-21 22:18 39.50668 -82.50181 27135 ft 485 kts 174°
2026-04-21 22:18 39.47312 -82.49724 27386 ft 485 kts 174°
2026-04-21 22:18 39.43963 -82.49268 27633 ft 484 kts 174°
2026-04-21 22:18 39.40619 -82.48809 27883 ft 483 kts 174°
2026-04-21 22:19 39.37276 -82.48348 28133 ft 482 kts 174°
2026-04-21 22:19 39.33945 -82.47888 28383 ft 481 kts 174°
2026-04-21 22:19 39.30614 -82.47434 28633 ft 480 kts 174°
2026-04-21 22:19 39.27290 -82.46985 28883 ft 480 kts 174°
2026-04-21 22:20 39.23972 -82.46538 29133 ft 479 kts 174°
2026-04-21 22:20 39.20708 -82.46097 29379 ft 478 kts 174°
2026-04-21 22:20 39.17403 -82.45644 29629 ft 477 kts 174°
2026-04-21 22:20 39.14108 -82.45189 29878 ft 476 kts 174°
2026-04-21 22:21 39.10816 -82.44736 30129 ft 475 kts 174°
2026-04-21 22:21 39.07533 -82.44284 30383 ft 474 kts 174°
2026-04-21 22:21 39.04248 -82.43838 30623 ft 474 kts 174°
2026-04-21 22:21 39.00975 -82.43400 30871 ft 473 kts 174°
2026-04-21 22:22 38.97708 -82.42965 31129 ft 472 kts 174°
2026-04-21 22:22 38.94436 -82.42525 31379 ft 471 kts 174°
2026-04-21 22:22 38.91177 -82.42084 31627 ft 471 kts 174°
2026-04-21 22:22 38.87924 -82.41641 31879 ft 470 kts 174°
2026-04-21 22:23 38.84671 -82.41198 32133 ft 469 kts 174°
2026-04-21 22:23 38.81420 -82.40759 32379 ft 469 kts 174°
2026-04-21 22:23 38.78181 -82.40327 32632 ft 468 kts 174°
2026-04-21 22:23 38.74943 -82.39892 32878 ft 467 kts 174°
2026-04-21 22:24 38.71716 -82.39457 33128 ft 466 kts 174°
2026-04-21 22:24 38.68487 -82.39022 33378 ft 466 kts 174°
2026-04-21 22:24 38.65264 -82.38587 33628 ft 465 kts 174°
2026-04-21 22:24 38.62054 -82.38152 33877 ft 464 kts 174°
2026-04-21 22:25 38.58840 -82.37721 33996 ft 466 kts 174°
2026-04-21 22:25 38.52337 -82.36852 34021 ft 474 kts 174°
2026-04-21 22:26 38.45803 -82.35980 34020 ft 476 kts 174°
2026-04-21 22:26 38.39198 -82.35099 34021 ft 476 kts 174°
2026-04-21 22:27 38.32594 -82.34220 34019 ft 477 kts 174°
2026-04-21 22:27 38.25992 -82.33344 34020 ft 477 kts 174°
2026-04-21 22:28 38.19428 -82.32472 34025 ft 477 kts 174°
2026-04-21 22:28 38.12818 -82.31596 34028 ft 478 kts 174°
2026-04-21 22:29 38.06194 -82.30737 34028 ft 478 kts 174°
2026-04-21 22:29 37.99569 -82.29886 34035 ft 478 kts 174°
2026-04-21 22:30 37.92953 -82.29030 34034 ft 478 kts 174°
2026-04-21 22:30 37.86339 -82.28157 34025 ft 478 kts 174°
2026-04-21 22:31 37.79765 -82.27291 34029 ft 478 kts 174°
2026-04-21 22:31 37.73147 -82.26433 34030 ft 478 kts 174°
2026-04-21 22:32 37.66524 -82.25583 34027 ft 478 kts 174°
2026-04-21 22:32 37.59897 -82.24731 34036 ft 478 kts 174°
2026-04-21 22:33 37.53313 -82.23888 34031 ft 478 kts 174°
2026-04-21 22:33 37.46685 -82.23032 34029 ft 479 kts 174°
2026-04-21 22:34 37.40045 -82.22174 34030 ft 479 kts 174°
2026-04-21 22:34 37.33396 -82.21316 34032 ft 479 kts 174°
2026-04-21 22:35 37.26795 -82.20463 34037 ft 480 kts 174°
2026-04-21 22:35 37.20158 -82.19613 34035 ft 480 kts 174°
2026-04-21 22:36 37.10184 -82.18345 34037 ft 480 kts 174°
2026-04-21 22:36 37.03534 -82.17508 34035 ft 480 kts 174°
2026-04-21 22:37 36.96879 -82.16672 34035 ft 481 kts 174°
2026-04-21 22:37 36.90215 -82.15824 34043 ft 481 kts 174°
2026-04-21 22:38 36.83553 -82.14976 34038 ft 481 kts 174°
2026-04-21 22:38 36.76885 -82.14138 34045 ft 482 kts 174°
2026-04-21 22:39 36.70216 -82.13298 34045 ft 482 kts 174°
2026-04-21 22:39 36.63550 -82.12456 34045 ft 482 kts 174°
2026-04-21 22:40 36.56879 -82.11610 34045 ft 481 kts 174°
2026-04-21 22:40 36.50216 -82.10768 34046 ft 481 kts 174°
2026-04-21 22:41 36.43554 -82.09936 34031 ft 481 kts 174°
2026-04-21 22:41 36.36886 -82.09111 34037 ft 482 kts 174°
2026-04-21 22:42 36.31342 -82.08425 34042 ft 482 kts 174°
2026-04-21 22:42 36.24666 -82.07593 34033 ft 482 kts 174°
2026-04-21 22:43 36.17984 -82.06752 34038 ft 483 kts 174°
2026-04-21 22:43 36.11327 -82.05908 34031 ft 483 kts 174°
2026-04-21 22:44 36.04625 -82.05080 34027 ft 484 kts 174°
2026-04-21 22:44 35.97920 -82.04246 34034 ft 485 kts 174°
2026-04-21 22:45 35.91209 -82.03411 34045 ft 484 kts 174°
2026-04-21 22:45 35.84502 -82.02585 34048 ft 484 kts 174°
2026-04-21 22:46 35.77808 -82.01775 34049 ft 482 kts 174°
2026-04-21 22:46 35.71130 -82.00964 34048 ft 481 kts 174°
2026-04-21 22:47 35.64474 -82.00137 34040 ft 480 kts 174°
2026-04-21 22:47 35.57828 -81.99319 34043 ft 480 kts 174°
2026-04-21 22:48 35.51185 -81.98508 34042 ft 479 kts 174°
2026-04-21 22:48 35.44555 -81.97701 34041 ft 479 kts 174°
2026-04-21 22:49 35.37925 -81.96889 34036 ft 478 kts 174°
2026-04-21 22:49 35.31296 -81.96078 34037 ft 478 kts 174°
2026-04-21 22:50 35.24673 -81.95275 34038 ft 478 kts 174°
2026-04-21 22:50 35.18083 -81.94469 34036 ft 479 kts 174°
2026-04-21 22:51 35.11411 -81.93664 34043 ft 479 kts 174°
2026-04-21 22:51 35.04827 -81.92908 34029 ft 478 kts 178°
2026-04-21 22:52 34.98221 -81.93599 34040 ft 477 kts 188°
2026-04-21 22:52 34.91657 -81.94781 34036 ft 477 kts 188°
2026-04-21 22:53 34.85087 -81.95978 34035 ft 477 kts 188°
2026-04-21 22:53 34.78520 -81.97158 34032 ft 477 kts 188°
2026-04-21 22:54 34.71949 -81.98328 34031 ft 476 kts 188°
2026-04-21 22:54 34.65388 -81.99496 34029 ft 476 kts 188°
2026-04-21 22:55 34.58828 -82.00668 34032 ft 476 kts 188°
2026-04-21 22:55 34.52310 -82.01831 34026 ft 476 kts 188°
2026-04-21 22:56 34.45748 -82.03000 34029 ft 477 kts 188°
2026-04-21 22:56 34.39173 -82.04162 34034 ft 477 kts 188°
2026-04-21 22:57 34.32611 -82.05320 34031 ft 477 kts 188°
2026-04-21 22:57 34.26041 -82.06487 34038 ft 477 kts 188°
2026-04-21 22:58 34.19478 -82.07651 34038 ft 477 kts 188°
2026-04-21 22:58 34.12908 -82.08811 34038 ft 477 kts 188°
2026-04-21 22:59 34.06388 -82.09959 34034 ft 477 kts 188°
2026-04-21 22:59 33.99822 -82.11107 34033 ft 477 kts 188°
2026-04-21 23:00 33.93254 -82.12263 34031 ft 476 kts 188°
2026-04-21 23:00 33.86683 -82.13421 34035 ft 476 kts 188°
2026-04-21 23:01 33.80119 -82.14563 34034 ft 476 kts 188°
2026-04-21 23:01 33.73555 -82.15716 34033 ft 476 kts 188°
2026-04-21 23:02 33.66958 -82.16343 34034 ft 476 kts 182°
2026-04-21 23:02 33.60374 -82.16568 34038 ft 476 kts 182°
2026-04-21 23:03 33.53749 -82.16807 34033 ft 476 kts 182°
2026-04-21 23:03 33.47124 -82.17052 34036 ft 476 kts 182°
2026-04-21 23:04 33.40491 -82.17293 34028 ft 476 kts 182°
2026-04-21 23:04 33.33859 -82.17529 34026 ft 476 kts 182°
2026-04-21 23:05 33.27230 -82.17760 34031 ft 476 kts 182°
2026-04-21 23:05 33.20639 -82.17991 34036 ft 476 kts 182°
2026-04-21 23:06 33.14006 -82.18223 34034 ft 476 kts 182°
2026-04-21 23:06 33.07379 -82.18458 34032 ft 476 kts 182°
2026-04-21 23:07 33.00751 -82.18701 34033 ft 476 kts 182°
2026-04-21 23:07 32.94121 -82.18933 34034 ft 476 kts 182°
2026-04-21 23:08 32.87497 -82.19157 34029 ft 476 kts 182°
2026-04-21 23:08 32.80877 -82.19386 34028 ft 476 kts 182°
2026-04-21 23:09 32.74301 -82.19620 34031 ft 476 kts 182°
2026-04-21 23:09 32.67674 -82.19851 34029 ft 476 kts 182°
2026-04-21 23:10 32.61050 -82.20085 34032 ft 476 kts 182°
2026-04-21 23:10 32.54419 -82.20325 34031 ft 477 kts 182°
2026-04-21 23:11 32.47787 -82.20551 34039 ft 477 kts 182°
2026-04-21 23:11 32.41153 -82.20776 34034 ft 476 kts 182°
2026-04-21 23:12 32.34527 -82.21007 34035 ft 476 kts 182°
2026-04-21 23:12 32.27901 -82.21234 34033 ft 476 kts 182°
2026-04-21 23:13 32.21277 -82.21465 34035 ft 476 kts 182°
2026-04-21 23:13 32.14657 -82.21697 34034 ft 476 kts 182°
2026-04-21 23:14 32.08079 -82.21925 34028 ft 476 kts 182°
2026-04-21 23:14 32.01459 -82.22151 34034 ft 476 kts 182°
2026-04-21 23:15 31.94831 -82.22378 34034 ft 476 kts 182°
2026-04-21 23:15 31.88213 -82.22607 34028 ft 476 kts 182°
2026-04-21 23:16 31.81588 -82.22835 34034 ft 476 kts 182°
2026-04-21 23:16 31.74963 -82.23064 34034 ft 476 kts 182°
2026-04-21 23:17 31.68339 -82.23281 34031 ft 476 kts 182°
2026-04-21 23:17 31.61716 -82.23520 34033 ft 476 kts 182°
2026-04-21 23:18 31.55093 -82.23748 34032 ft 476 kts 182°
2026-04-21 23:18 31.48506 -82.23963 34035 ft 476 kts 182°
2026-04-21 23:19 31.41869 -82.24177 34033 ft 476 kts 182°
2026-04-21 23:19 31.35233 -82.24398 34035 ft 476 kts 182°
2026-04-21 23:20 31.28607 -82.24627 34038 ft 476 kts 182°
2026-04-21 23:20 31.21981 -82.24859 34037 ft 476 kts 182°
2026-04-21 23:21 31.15352 -82.25077 34036 ft 476 kts 182°
2026-04-21 23:21 31.08725 -82.25298 34039 ft 476 kts 182°
2026-04-21 23:22 31.02143 -82.25522 34042 ft 476 kts 182°
2026-04-21 23:22 30.95561 -82.26392 34037 ft 476 kts 187°
2026-04-21 23:23 30.88993 -82.27383 34038 ft 476 kts 187°
2026-04-21 23:23 30.82409 -82.28358 34035 ft 476 kts 187°
2026-04-21 23:24 30.75828 -82.29315 34039 ft 476 kts 187°
2026-04-21 23:24 30.69252 -82.30285 34043 ft 476 kts 187°
2026-04-21 23:25 30.62671 -82.31238 34036 ft 476 kts 186°
2026-04-21 23:25 30.56066 -82.30922 34047 ft 476 kts 170°
2026-04-21 23:26 30.49590 -82.29606 34099 ft 476 kts 170°
2026-04-21 23:26 30.43067 -82.28277 34117 ft 476 kts 170°
2026-04-21 23:27 30.39818 -82.27626 33765 ft 470 kts 170°
2026-04-21 23:27 30.36610 -82.26984 32192 ft 469 kts 170°
2026-04-21 23:27 30.33376 -82.26338 30381 ft 472 kts 170°
2026-04-21 23:27 30.30125 -82.25689 28443 ft 475 kts 170°
2026-04-21 23:28 30.26851 -82.25034 26549 ft 478 kts 170°
2026-04-21 23:28 30.23616 -82.24388 25433 ft 463 kts 170°
2026-04-21 23:28 30.20530 -82.23773 24828 ft 437 kts 170°
2026-04-21 23:28 30.17627 -82.23195 24509 ft 408 kts 170°
2026-04-21 23:29 30.14901 -82.22650 24308 ft 392 kts 170°
2026-04-21 23:29 30.12226 -82.22117 24137 ft 388 kts 171°
2026-04-21 23:29 30.09567 -82.21588 23992 ft 387 kts 170°
2026-04-21 23:29 30.06897 -82.21059 24021 ft 395 kts 171°
2026-04-21 23:30 30.04174 -82.20518 24020 ft 409 kts 170°
2026-04-21 23:30 30.01329 -82.19953 24020 ft 421 kts 171°
2026-04-21 23:30 29.98390 -82.19370 24020 ft 425 kts 171°
2026-04-21 23:30 29.95473 -82.18794 24019 ft 426 kts 171°
2026-04-21 23:31 29.93541 -82.18415 24019 ft 426 kts 171°
2026-04-21 23:31 29.89672 -82.17656 24019 ft 426 kts 171°
2026-04-21 23:31 29.86744 -82.17077 24019 ft 426 kts 170°
2026-04-21 23:31 29.83824 -82.16497 24020 ft 426 kts 170°
2026-04-21 23:32 29.80904 -82.15914 24019 ft 426 kts 170°
2026-04-21 23:32 29.78932 -82.15518 24019 ft 426 kts 170°
2026-04-21 23:32 29.76012 -82.14932 24019 ft 426 kts 170°
2026-04-21 23:32 29.73086 -82.14349 24019 ft 426 kts 170°
2026-04-21 23:33 29.70205 -82.13780 23628 ft 423 kts 170°
2026-04-21 23:33 29.67309 -82.13207 23129 ft 421 kts 170°
2026-04-21 23:33 29.64435 -82.12636 22628 ft 418 kts 170°
2026-04-21 23:33 29.61583 -82.12068 22131 ft 415 kts 170°
2026-04-21 23:34 29.58751 -82.11506 21629 ft 411 kts 171°
2026-04-21 23:34 29.55942 -82.10952 21126 ft 408 kts 170°
2026-04-21 23:34 29.53150 -82.10398 20625 ft 405 kts 170°
2026-04-21 23:34 29.50381 -82.09847 20108 ft 402 kts 170°
2026-04-21 23:35 29.47631 -82.09300 19625 ft 399 kts 170°
2026-04-21 23:35 29.44904 -82.08760 19122 ft 396 kts 170°
2026-04-21 23:35 29.42198 -82.08222 18622 ft 393 kts 170°
2026-04-21 23:35 29.39553 -82.07696 18119 ft 375 kts 170°
2026-04-21 23:36 29.37053 -82.07200 17625 ft 365 kts 171°
2026-04-21 23:36 29.34569 -82.06710 17157 ft 360 kts 170°
2026-04-21 23:36 29.32118 -82.06190 16994 ft 358 kts 166°
2026-04-21 23:36 29.29754 -82.05274 16992 ft 360 kts 156°
2026-04-21 23:37 29.27536 -82.03958 16734 ft 359 kts 151°
2026-04-21 23:37 29.25352 -82.02575 16481 ft 357 kts 151°
2026-04-21 23:37 29.23181 -82.01205 16226 ft 356 kts 151°
2026-04-21 23:37 29.21013 -81.99839 15980 ft 355 kts 151°
2026-04-21 23:38 29.18852 -81.98484 15730 ft 353 kts 152°
2026-04-21 23:38 29.16723 -81.97152 15482 ft 352 kts 152°
2026-04-21 23:38 29.14579 -81.95808 15232 ft 351 kts 151°
2026-04-21 23:38 29.12442 -81.94469 14981 ft 349 kts 152°
2026-04-21 23:39 29.10313 -81.93134 14731 ft 348 kts 152°
2026-04-21 23:39 29.08194 -81.91803 14477 ft 347 kts 150°
2026-04-21 23:39 29.06219 -81.90241 14230 ft 346 kts 139°
2026-04-21 23:39 29.04463 -81.88365 13978 ft 345 kts 136°
2026-04-21 23:40 29.02725 -81.86483 13735 ft 343 kts 137°
2026-04-21 23:40 29.00989 -81.84614 13478 ft 342 kts 137°
2026-04-21 23:40 28.99260 -81.82763 13228 ft 341 kts 137°
2026-04-21 23:40 28.97625 -81.80813 12968 ft 340 kts 128°
2026-04-21 23:41 28.96195 -81.78708 12539 ft 330 kts 128°
2026-04-21 23:41 28.94808 -81.76649 12108 ft 325 kts 128°
2026-04-21 23:41 28.93456 -81.74642 11685 ft 322 kts 128°
2026-04-21 23:41 28.92094 -81.72620 11261 ft 320 kts 128°
2026-04-21 23:42 28.90743 -81.70612 10832 ft 318 kts 128°
2026-04-21 23:42 28.89397 -81.68615 10406 ft 316 kts 128°
2026-04-21 23:42 28.88075 -81.66658 9981 ft 304 kts 128°
2026-04-21 23:42 28.86814 -81.64792 9556 ft 292 kts 128°
2026-04-21 23:43 28.85584 -81.62972 9130 ft 288 kts 128°
2026-04-21 23:43 28.84365 -81.61172 8766 ft 285 kts 128°
2026-04-21 23:43 28.83154 -81.59383 8703 ft 285 kts 128°
2026-04-21 23:43 28.81940 -81.57588 8706 ft 286 kts 128°
2026-04-21 23:44 28.80739 -81.55817 8707 ft 286 kts 129°
2026-04-21 23:44 28.79332 -81.54225 8707 ft 285 kts 143°
2026-04-21 23:44 28.77649 -81.53032 8709 ft 285 kts 153°
2026-04-21 23:44 28.75909 -81.51998 8702 ft 273 kts 153°
2026-04-21 23:45 28.74287 -81.51027 8394 ft 257 kts 153°
2026-04-21 23:45 28.71205 -81.49174 7715 ft 247 kts 152°
2026-04-21 23:45 28.69683 -81.48257 7703 ft 248 kts 153°
2026-04-21 23:46 28.68162 -81.47343 7705 ft 248 kts 153°
2026-04-21 23:46 28.66633 -81.46424 7708 ft 248 kts 152°
2026-04-21 23:46 28.65099 -81.45503 7707 ft 248 kts 153°
2026-04-21 23:46 28.63570 -81.44586 7711 ft 248 kts 153°
2026-04-21 23:47 28.62042 -81.43670 7706 ft 249 kts 153°
2026-04-21 23:47 28.60449 -81.42899 7337 ft 247 kts 165°
2026-04-21 23:47 28.58767 -81.42580 6962 ft 244 kts 175°
2026-04-21 23:47 28.57078 -81.42417 6589 ft 243 kts 179°
2026-04-21 23:48 28.55389 -81.42410 6209 ft 242 kts 180°
2026-04-21 23:48 28.53712 -81.42411 5834 ft 241 kts 180°
2026-04-21 23:48 28.52041 -81.42410 5457 ft 239 kts 180°
2026-04-21 23:48 28.50382 -81.42413 5081 ft 237 kts 180°
2026-04-21 23:49 28.48754 -81.42413 4625 ft 231 kts 180°
2026-04-21 23:49 28.47162 -81.42414 4138 ft 227 kts 180°
2026-04-21 23:49 28.45590 -81.42411 3630 ft 225 kts 180°
2026-04-21 23:49 28.44041 -81.42408 3168 ft 221 kts 180°
2026-04-21 23:50 28.42535 -81.42405 2757 ft 216 kts 180°
2026-04-21 23:50 28.41026 -81.42403 2714 ft 217 kts 180°
2026-04-21 23:50 28.39503 -81.42403 2701 ft 218 kts 180°
2026-04-21 23:50 28.37984 -81.42403 2703 ft 218 kts 180°
2026-04-21 23:51 28.37472 -81.42404 2703 ft 219 kts 180°
2026-04-21 23:51 28.36414 -81.42404 2703 ft 218 kts 180°
2026-04-21 23:51 28.34911 -81.42405 2701 ft 213 kts 180°
2026-04-21 23:51 28.33442 -81.42396 2703 ft 210 kts 180°
2026-04-21 23:52 28.31986 -81.42372 2704 ft 209 kts 179°
2026-04-21 23:52 28.30537 -81.42303 2702 ft 209 kts 170°
2026-04-21 23:52 28.29256 -81.41566 2490 ft 209 kts 135°
2026-04-21 23:52 28.28612 -81.40149 2218 ft 198 kts 97°
2026-04-21 23:53 28.28626 -81.38620 1945 ft 191 kts 85°
2026-04-21 23:53 28.28764 -81.37139 1745 ft 187 kts 83°
2026-04-21 23:53 28.28916 -81.35673 1732 ft 186 kts 83°
2026-04-21 23:53 28.29077 -81.34215 1719 ft 187 kts 81°
2026-04-21 23:54 28.29654 -81.32947 1704 ft 175 kts 43°
2026-04-21 23:54 28.30571 -81.32165 1694 ft 158 kts 33°
2026-04-21 23:54 28.31472 -81.31545 1696 ft 153 kts 14°
2026-04-21 23:54 28.32498 -81.31659 1579 ft 149 kts 339°
2026-04-21 23:55 28.33459 -81.32067 1467 ft 147 kts 339°
2026-04-21 23:55 28.34424 -81.32444 1421 ft 147 kts 346°
2026-04-21 23:55 28.35439 -81.32598 1264 ft 147 kts 355°
2026-04-21 23:55 28.36463 -81.32636 1073 ft 147 kts
2026-04-21 23:56 28.37488 -81.32637 832 ft 146 kts
2026-04-21 23:56 28.38504 -81.32652 680 ft 144 kts
2026-04-21 23:56 28.39512 -81.32656 542 ft 144 kts
2026-04-21 23:56 28.40522 -81.32667 333 ft 145 kts
2026-04-21 23:57 28.41519 -81.32667 167 ft 142 kts
2026-04-21 23:57 28.42438 -81.32679 106 ft 121 kts
2026-04-21 23:57 28.43086 -81.32678 107 ft 66 kts 359°
2026-04-21 23:57 28.43453 -81.32681 107 ft 49 kts 359°
2026-04-21 23:58 28.43720 -81.32609 106 ft 22 kts 59°
2026-04-21 23:58 28.43810 -81.32421 106 ft 29 kts 58°
2026-04-21 23:58 28.43911 -81.32234 109 ft 27 kts 59°
2026-04-21 23:58 28.43989 -81.32069 108 ft 6 kts 75°
2026-04-21 23:59 28.43989 -81.32029 110 ft 5 kts 94°
2026-04-21 23:59 28.43974 -81.31968 110 ft 15 kts 117°
2026-04-21 23:59 28.43910 -81.31852 108 ft 16 kts 147°
2026-04-21 23:59 28.43800 -81.31844 106 ft 16 kts 185°
2026-04-22 00:00 28.43687 -81.31846 105 ft 16 kts 179°
2026-04-22 00:00 28.43577 -81.31845 105 ft 15 kts 179°
2026-04-22 00:00 28.43498 -81.31792 103 ft 14 kts 102°
2026-04-22 00:00 28.43511 -81.31688 102 ft 9 kts 85°
2026-04-22 00:01 28.43513 -81.31675 102 ft 3 kts 77°
2026-04-22 00:01 28.43544 -81.31655 102 ft 6 kts 16°
2026-04-22 00:01 28.43582 -81.31644 102 ft 6 kts 13°
2026-04-22 00:01 28.43616 -81.31636 102 ft 5 kts 11°
2026-04-22 00:02 28.43652 -81.31628 102 ft 9 kts 12°
2026-04-22 00:02 28.43704 -81.31572 102 ft 11 kts 67°
2026-04-22 00:02 28.43704 -81.31484 102 ft 11 kts 97°
2026-04-22 00:02 28.43691 -81.31392 101 ft 12 kts 100°
2026-04-22 00:03 28.43684 -81.31312 101 ft 10 kts 85°
2026-04-22 00:03 28.43686 -81.31242 101 ft 7 kts 132°
2026-04-22 00:03 28.43647 -81.31234 102 ft 4 kts 187°
2026-04-22 00:03 28.43622 -81.31247 102 ft 4 kts 203°
2026-04-22 00:04 28.43609 -81.31253 102 ft 0 kts 202°